GW2624 Weather Reports


time (UTC)temp
C
wind
direction
speed
KPH
gust
KPH
rain 1hr
cm
rain 24hr
cm
rain mn
cm
humidity
%
barometer
mb
20260510092906 11 136 0.0 3.2 0.00 0.00 0.00 44 1005.7
20260510091905 11 136 0.0 4.8 0.00 0.00 0.00 45 1005.5
20260510091405 11 136 0.0 4.8 0.00 0.00 0.00 48 1005.2
20260510090904 11 136 1.6 4.8 0.00 0.00 0.00 44 1005.1
20260510085404 11 136 0.0 3.2 0.00 0.00 0.00 46 1005.4
20260510084404 11 136 0.0 0.0 0.00 0.00 0.00 46 1005.4
20260510083405 11 136 0.0 0.0 0.00 0.00 0.00 46 1005.4
20260510082904 11 136 0.0 0.0 0.00 0.00 0.00 44 1005.3
20260510081904 11 136 0.0 0.0 0.00 0.00 0.00 45 1005.2
20260510081405 11 136 0.0 3.2 0.00 0.00 0.00 44 1005.2
20260510080904 11 136 0.0 3.2 0.00 0.00 0.00 44 1005.1
20260510075905 11 136 0.0 0.0 0.00 0.00 0.00 45 1005.1
20260510073404 11 136 0.0 3.2 0.00 0.00 0.00 41 1005.2
20260510072905 11 136 1.6 3.2 0.00 0.00 0.00 41 1005.2
20260510072404 11 136 0.0 3.2 0.00 0.00 0.00 41 1005.2
20260510071905 12 136 1.6 3.2 0.00 0.00 0.00 41 1005.2
20260510070404 12 136 0.0 3.2 0.00 0.00 0.00 38 1005.0
20260510065905 12 136 0.0 0.0 0.00 0.00 0.00 39 1005.0
20260510065404 12 136 0.0 0.0 0.00 0.00 0.00 40 1005.1
20260510063404 13 136 0.0 0.0 0.00 0.00 0.00 34 1005.1
20260510062904 13 136 0.0 0.0 0.00 0.00 0.00 34 1005.0
20260510062404 13 136 0.0 0.0 0.00 0.00 0.00 34 1005.0
20260510061404 13 136 0.0 3.2 0.00 0.00 0.00 33 1004.9
20260510054904 15 94 0.0 0.0 0.00 0.00 0.00 29 1004.7
20260510054404 15 94 0.0 0.0 0.00 0.00 0.00 29 1004.7
20260510053404 16 94 0.0 4.8 0.00 0.00 0.00 26 1004.7
20260510052905 16 94 1.6 4.8 0.00 0.00 0.00 26 1004.7
20260510051404 17 142 0.0 1.6 0.00 0.00 0.00 25 1004.9
20260510050404 17 142 0.0 0.0 0.00 0.00 0.00 25 1004.9
20260510045905 17 142 0.0 0.0 0.00 0.00 0.00 24 1004.8
20260510043904 17 111 1.6 4.8 0.00 0.00 0.00 26 1004.8
20260510042904 16 153 1.6 3.2 0.00 0.00 0.00 26 1004.8
20260510042404 16 153 0.0 1.6 0.00 0.00 0.00 26 1004.8
20260510041904 17 153 0.0 4.8 0.00 0.00 0.00 25 1004.7
20260510041405 17 153 1.6 4.8 0.00 0.00 0.00 23 1004.7
20260510040405 17 141 0.0 0.0 0.00 0.00 0.00 22 1004.5
20260510034405 18 141 0.0 3.2 0.00 0.00 0.00 19 1004.5
20260510033904 18 141 0.0 3.2 0.00 0.00 0.00 19 1004.4
20260510033404 18 141 0.0 1.6 0.00 0.00 0.00 18 1004.4
20260510032905 19 141 0.0 1.6 0.00 0.00 0.00 19 1004.3
20260510031404 19 141 0.0 1.6 0.00 0.00 0.00 18 1004.0
20260510030904 20 141 0.0 3.2 0.00 0.00 0.00 17 1003.9
20260510025405 20 141 0.0 1.6 0.00 0.00 0.00 16 1003.6
20260510023904 21 141 0.0 3.2 0.00 0.00 0.00 14 1003.2
20260510022905 21 155 0.0 3.2 0.00 0.00 0.00 13 1003.1
20260510021405 22 152 0.0 4.8 0.00 0.00 0.00 13 1002.9
20260510020904 22 128 1.6 3.2 0.00 0.00 0.00 13 1002.8
20260510020404 22 152 0.0 4.8 0.00 0.00 0.00 13 1002.7
20260510015904 22 152 1.6 11.3 0.00 0.00 0.00 13 1002.7
20260510014904 23 251 1.6 4.8 0.00 0.00 0.00 14 1002.6
20260510014404 23 193 1.6 11.3 0.00 0.00 0.00 13 1002.4
20260510012404 23 120 4.8 19.3 0.00 0.00 0.00 12 1002.3
20260510011404 23 200 3.2 4.8 0.00 0.00 0.00 12 1002.2
20260510010904 23 228 3.2 11.3 0.00 0.00 0.00 12 1002.2
20260510010404 23 275 1.6 11.3 0.00 0.00 0.00 12 1002.1
20260510005904 24 204 3.2 11.3 0.00 0.00 0.00 12 1002.2
20260510004404 24 341 3.2 19.3 0.00 0.00 0.00 11 1002.1
20260510002904 25 260 3.2 14.5 0.00 0.00 0.00 11 1002.2
20260510002404 25 253 4.8 14.5 0.00 0.00 0.00 11 1002.0
20260510000904 25 263 3.2 19.3 0.00 0.00 0.00 12 1001.9
20260510000404 25 306 3.2 19.3 0.00 0.00 0.00 12 1002.0
20260509235904 25 241 8.0 19.3 0.00 0.00 0.00 12 1001.9
20260509234904 25 206 4.8 19.3 0.00 0.00 0.00 12 1001.8
20260509234404 25 251 8.0 20.9 0.00 0.00 0.00 11 1001.8
20260509232403 26 252 6.4 19.3 0.00 0.00 0.00 12 1001.6
20260509231904 26 269 4.8 19.3 0.00 0.00 0.00 12 1001.6
20260509231404 25 261 1.6 12.9 0.00 0.00 0.00 12 1001.7
20260509230904 26 271 6.4 19.3 0.00 0.00 0.00 11 1001.6
20260509230404 26 258 6.4 19.3 0.00 0.00 0.00 11 1001.6
20260509224404 27 313 4.8 25.7 0.00 0.00 0.00 10 1001.5
20260509223404 27 357 4.8 19.3 0.00 0.00 0.00 12 1001.5
20260509222404 26 227 6.4 19.3 0.00 0.00 0.00 11 1001.7
20260509221403 26 250 8.0 20.9 0.00 0.00 0.00 11 1001.9
20260509215904 27 281 4.8 12.9 0.00 0.00 0.00 13 1001.9
20260509214404 25 243 4.8 12.9 0.00 0.00 0.00 12 1002.1
20260509212904 25 302 4.8 14.5 0.00 0.00 0.00 13 1002.5
20260509211904 26 299 4.8 14.5 0.00 0.00 0.00 12 1002.7
20260509210404 26 278 3.2 14.5 0.00 0.00 0.00 13 1002.8
20260509205904 26 251 4.8 14.5 0.00 0.00 0.00 13 1002.8
20260509205405 26 269 3.2 8.0 0.00 0.00 0.00 14 1002.9
20260509204905 26 227 1.6 8.0 0.00 0.00 0.00 14 1003.0
20260509203904 25 319 4.8 19.3 0.00 0.00 0.00 14 1003.0
20260509202904 25 247 3.2 11.3 0.00 0.00 0.00 14 1003.3
20260509201404 26 244 3.2 11.3 0.00 0.00 0.00 14 1003.4
20260509200904 26 288 3.2 4.8 0.00 0.00 0.00 13 1003.5
20260509194404 26 223 3.2 12.9 0.00 0.00 0.00 14 1003.7
20260509193405 27 309 3.2 11.3 0.00 0.00 0.00 13 1003.7
20260509192904 26 314 4.8 11.3 0.00 0.00 0.00 14 1003.8
20260509192404 26 239 3.2 16.1 0.00 0.00 0.00 14 1003.9
20260509191904 26 332 4.8 16.1 0.00 0.00 0.00 14 1004.0
20260509191404 26 197 1.6 11.3 0.00 0.00 0.00 13 1004.1
20260509190404 26 254 3.2 9.7 0.00 0.00 0.00 13 1004.2
20260509185404 26 65 3.2 9.7 0.00 0.00 0.00 14 1004.4
20260509183404 26 224 3.2 11.3 0.00 0.00 0.00 13 1004.7
20260509182904 26 24 3.2 11.3 0.00 0.00 0.00 14 1004.8
20260509180904 26 298 3.2 11.3 0.00 0.00 0.00 15 1005.1
20260509180404 26 336 1.6 16.1 0.00 0.00 0.00 16 1005.1
20260509175904 25 257 3.2 16.1 0.00 0.00 0.00 17 1005.2
20260509175403 25 276 3.2 12.9 0.00 0.00 0.00 16 1005.3
20260509174904 25 317 3.2 11.3 0.00 0.00 0.00 16 1005.3
20260509172404 25 17 1.6 19.3 0.00 0.00 0.00 15 1005.8
20260509171904 25 310 4.8 11.3 0.00 0.00 0.00 15 1006.0
20260509170904 25 309 4.8 12.9 0.00 0.00 0.00 16 1006.1
20260509170404 25 318 4.8 9.7 0.00 0.00 0.00 16 1006.2
20260509164904 24 15 3.2 11.3 0.00 0.00 0.00 15 1006.1
20260509163904 24 324 3.2 11.3 0.00 0.00 0.00 16 1006.1
20260509163405 23 241 3.2 11.3 0.00 0.00 0.00 17 1005.9
20260509162904 23 256 3.2 8.0 0.00 0.00 0.00 19 1006.0
20260509162405 23 291 3.2 8.0 0.00 0.00 0.00 18 1005.9
20260509161904 22 252 1.6 11.3 0.00 0.00 0.00 22 1006.0
20260509160904 22 319 3.2 4.8 0.00 0.00 0.00 21 1006.1
20260509155404 21 211 1.6 4.8 0.00 0.00 0.00 23 1006.2
20260509154904 20 326 3.2 4.8 0.00 0.00 0.00 23 1006.2
20260509153904 20 279 1.6 4.8 0.00 0.00 0.00 23 1006.4
20260509152904 20 225 1.6 4.8 0.00 0.00 0.00 25 1006.6
20260509152404 20 192 0.0 4.8 0.00 0.00 0.00 25 1006.7
20260509151904 20 281 1.6 4.8 0.00 0.00 0.00 25 1006.8
20260509151404 20 296 1.6 4.8 0.00 0.00 0.00 26 1006.8
20260509150904 19 286 3.2 4.8 0.00 0.00 0.00 26 1006.7
20260509150405 19 16 1.6 4.8 0.00 0.00 0.00 26 1006.6
20260509145404 18 18 1.6 4.8 0.00 0.00 0.00 28 1006.5
20260509144905 18 295 1.6 4.8 0.00 0.00 0.00 27 1006.6
20260509143904 18 255 1.6 4.8 0.00 0.00 0.00 27 1006.7
20260509143404 17 246 1.6 4.8 0.00 0.00 0.00 28 1006.9
20260509141904 16 144 0.0 3.2 0.00 0.00 0.00 29 1006.8
20260509141404 16 144 0.0 3.2 0.00 0.00 0.00 30 1006.8
20260509135405 13 144 1.6 4.8 0.00 0.00 0.00 37 1006.9
20260509134904 13 144 1.6 4.8 0.00 0.00 0.00 39 1006.9
20260509134404 12 144 3.2 4.8 0.00 0.00 0.00 40 1007.0
20260509133904 12 146 1.6 4.8 0.00 0.00 0.00 42 1007.0
20260509133404 11 150 3.2 4.8 0.00 0.00 0.00 44 1007.0
20260509131404 9 149 0.0 1.6 0.00 0.00 0.00 47 1006.9
20260509130904 8 149 0.0 4.8 0.00 0.00 0.00 47 1006.9
20260509124404 8 146 0.0 4.8 0.00 0.00 0.00 46 1006.8
20260509122404 9 145 0.0 4.8 0.00 0.00 0.00 44 1006.4
20260509115904 8 138 3.2 4.8 0.00 0.00 0.00 45 1006.1
20260509113404 9 138 3.2 4.8 0.00 0.00 0.00 43 1006.1
20260509111904 9 138 1.6 4.8 0.00 0.00 0.00 43 1006.2
20260509111404 9 137 4.8 4.8 0.00 0.00 0.00 44 1006.2
20260509110404 9 138 0.0 4.8 0.00 0.00 0.00 43 1006.1
20260509105904 9 135 3.2 4.8 0.00 0.00 0.00 43 1006.1
20260509105404 9 142 4.8 4.8 0.00 0.00 0.00 44 1006.1
20260509104403 9 146 3.2 4.8 0.00 0.00 0.00 43 1006.1
20260509103905 9 146 3.2 4.8 0.00 0.00 0.00 44 1006.0
20260509103404 9 146 4.8 4.8 0.00 0.00 0.00 43 1006.1
20260509101904 10 147 1.6 4.8 0.00 0.00 0.00 42 1006.1
20260509101404 10 147 3.2 4.8 0.00 0.00 0.00 42 1006.0
20260509095903 10 155 3.2 8.0 0.00 0.00 0.00 42 1006.0
20260509094904 10 144 0.0 8.0 0.00 0.00 0.00 41 1005.9
20260509094404 10 142 4.8 8.0 0.00 0.00 0.00 42 1006.0
20260509093904 10 137 1.6 4.8 0.00 0.00 0.00 41 1006.0